Regional Weather Roundup
Issued by NWS Little Rock, AR

Home | Current Version | Previous Version | Graphics & Text | Print | Product List | Glossary On
Versions: 1 2 3 4 5 6 7 8 9 10 11 12 13 14 15 16 17 18 19 20 21 22 23 24 25 26 27 28 29 30 31 32 33 34 35 36 37 38 39 40 41 42 43 44 45 46 47 48 49 50
000
ASUS44 KLZK 060105
RWRLZK

WEATHER ROUNDUP FOR ARKANSAS
NATIONAL WEATHER SERVICE LITTLE ROCK AR
800 PM CDT SUN JUL 05 2015

NOTE: "FAIR" INDICATES FEW OR NO CLOUDS BELOW 12,000 FEET WITH NO
SIGNIFICANT WEATHER AND/OR OBSTRUCTIONS TO VISIBILITY.

ARZ001-003-010-029-060200-
NORTHWEST ARKANSAS

CITY           SKY/WX    TMP DP  RH WIND       PRES   REMARKS
FAYETTEVILLE   CLOUDY    74  68  81 SW8       30.00F
FORT SMITH     LGT RAIN  72  69  90 CALM      29.99R FOG
HARRISON       CLOUDY    71  69  93 SE6       30.04R
BENTONVILLE    CLOUDY    79  66  65 SW8       30.02S
ROGERS         CLOUDY    78  68  71 S6        30.01S
SILOAM SPGS    CLOUDY    73  66  78 W8        30.02S THUNDER
HIGHFILL       CLOUDY    78  69  73 SW9       30.01R THUNDER
SPRINGDALE     PTCLDY    77  68  73 S5        30.03R
$$

ARZ004-005-016-060200-
NORTH CENTRAL ARKANSAS

CITY           SKY/WX    TMP DP  RH WIND       PRES   REMARKS
BATESVILLE     PTCLDY    79  72  78 SE5       30.04R
FLIPPIN          N/A     77  72  83 NE5       29.99S
MTN HOME       PTCLDY    78  74  87 CALM      30.02R
$$

ARZ040-041-060200-
WEST CENTRAL ARKANSAS

CITY           SKY/WX    TMP DP  RH WIND       PRES   REMARKS
MENA           CLOUDY    84  77  79 CALM      30.03R HX  94
MOUNT IDA      CLOUDY    79  72  79 VRB6      30.01R
$$

ARZ009-017-025-026-028-060200-
NORTHEAST ARKANSAS

CITY           SKY/WX    TMP DP  RH WIND       PRES   REMARKS
JONESBORO      MOCLDY    80  73  79 S9        30.04R
NEWPORT        CLEAR     79  74  84 S9        30.06R
WALNUT RIDGE   CLEAR     81  72  74 S12       30.03R
BLYTHEVILLE    CLEAR     80  74  81 S9        30.04R HX  85
$$

ARZ022-023-033-042-044-060200-
CENTRAL ARKANSAS

CITY           SKY/WX    TMP DP  RH WIND       PRES   REMARKS
LITTLE ROCK    MOCLDY    77  69  76 S8        30.05R
N LITTLE ROCK  MOCLDY    77  72  83 S8        30.05R
JACKSONVILLE   MOCLDY    78  71  78 S5        30.04R
SEARCY         PTCLDY    79  74  84 SE9       30.05R
HOT SPRINGS    CLOUDY    77  71  82 SE6       30.05R
RUSSELLVILLE   CLOUDY    75  69  81 E3        30.02R
CLINTON        CLOUDY    81  77  89 S6        30.05R HX  88
$$

ARZ036-060200-
EAST ARKANSAS

CITY           SKY/WX    TMP DP  RH WIND       PRES   REMARKS
WEST MEMPHIS   CLEAR     78  73  84 S8        30.04S
$$

ARZ050-053-066-070-073-060200-
SOUTHWEST ARKANSAS

CITY           SKY/WX    TMP DP  RH WIND       PRES   REMARKS
ARKADELPHIA    MOCLDY    76  76 100 VRB6      30.06R
CAMDEN         CLOUDY    72  66  83 MISG      30.07R
TEXARKANA      LGT RAIN  76  71  85 SE14G25   30.03R
EL DORADO      CLOUDY    71  68  90 SE6       30.06F
DE QUEEN       CLOUDY    87  77  72 SE6       29.97R HX  99
$$

ARZ056-057-069-060200-
SOUTHEAST ARKANSAS

CITY           SKY/WX    TMP DP  RH WIND       PRES   REMARKS
PINE BLUFF     PTCLDY    75  69  81 S9        30.06R
STUTTGART      PTCLDY    79  70  73 MISG      30.04R
MONTICELLO     PTCLDY    73  70  90 S6        30.08R

$$




USA.gov is the U.S. government's official web portal to all federal, state and local government web resources and services.